Regional Weather Roundup
Issued by NWS

Home | Current Version | Previous Version | Text Only | Print | Product List | Glossary On
Versions: 1 2 3 4 5 6 7 8 9 10 11 12 13 14 15 16 17 18 19 20 21 22 23 24 25 26 27 28 29 30 31 32 33 34 35 36 37 38 39 40 41 42 43 44 45 46 47 48 49 50
000
ASUS45 KABQ 261210
RWRNM
NEW MEXICO REGIONAL WEATHER ROUNDUP
NATIONAL WEATHER SERVICE ALBUQUERQUE NM
600 AM MDT SUN MAR 26 2017

NOTE: "FAIR" MEANS FEW OR NO CLOUDS BELOW 12,000 FEET AGL WITH NO
       SIGNIFICANT WEATHER OR OBSTRUCTIONS TO VISION.

      THIS PRODUCT IS RELEASED AS TWO VERSIONS.  ONE VERSION NEAR
      THE TOP OF THE HOUR CONTAINING PRELIMINARY DATA FROM ALBUQUERQUE
      AND OTHER STATIONS.  A FINAL VERSION WITH ADDITIONAL DATA IS
      ISSUED ABOUT 10 MINUTES AFTER THE HOUR.

NMZ501-503-504-510>518-261300-
NORTHWEST PLATEAU/NORTHCENTRAL MOUNTAINS

CITY           SKY/WX    TMP DP  RH WIND       PRES   REMARKS
FARMINGTON     FAIR      36  36 100 W6        29.90S WCI  31
6HR MIN TEMP:  36; 6HR MAX TEMP:  42;

LOS ALAMOS     CLOUDY    40  28  62 SW7       29.90S WCI  35
SANTA FE       FAIR      36  31  82 W8        29.89R WCI  30
6HR MIN TEMP:  36; 6HR MAX TEMP:  47;

TAOS             N/A     36  27  69 SW10      29.87S WCI  28
ANGEL FIRE     LGT SNOW  32  29  87 W15G21    29.85S WCI  22

$$
NMZ402-403-502-505>509-261300-
WESTCENTRAL MOUNTAINS/SOUTHWEST MOUNTAINS

CITY           SKY/WX    TMP DP  RH WIND       PRES   REMARKS
GALLUP         FAIR      33  30  88 SW6       29.95F WCI  28
6HR MIN TEMP:  32; 6HR MAX TEMP:  39; 6HR PCP: TRACE;

GRANTS         FAIR      35  28  73 NW14G20   29.95F WCI  26
SILVER CITY    FAIR      37  25  62 N8        29.96R WCI  31

$$
NMZ407-409-411-412-261300-
SOUTHERN DESERTS

CITY           SKY/WX    TMP DP  RH WIND       PRES   REMARKS
DEMING         FAIR      43  26  51 SW8       29.94R
6HR MIN TEMP:  43; 6HR MAX TEMP:  58;

LAS CRUCES     FAIR      49  26  39 W9        29.94R
HOLLOMAN AFB   FAIR      49  21  33 NE9       29.92S
ALAMOGORDO     FAIR      54  19  26 NE10      29.90S
T OR C         FAIR      50  22  33 NW10      29.92S
6HR MIN TEMP:  50; 6HR MAX TEMP:  58;


$$
NMZ519>523-261300-
CENTRAL VALLEYS/CENTRAL HIGHLANDS

CITY           SKY/WX    TMP DP  RH WIND       PRES   REMARKS
ALBUQUERQUE    FAIR      38  27  64 SE7       29.91F WCI  33
6HR MIN TEMP:  38; 6HR MAX TEMP:  51;

DOUBLE EAGLE   CLEAR     30  25  80 CALM      29.91
MORIARTY ARPT  FAIR      40  29  66 W3        29.91S
6HR MIN TEMP:  36; 6HR MAX TEMP:  52;

CLINES CORNERS FAIR      32  26  78 NW14      29.90R WCI  22
6HR MIN TEMP:  32; 6HR MAX TEMP:  45;

BELEN          FAIR      46  28  49 SW10G16   29.93S
6HR MIN TEMP:  37; 6HR MAX TEMP:  48;

SOCORRO        FAIR      42  28  57 CALM      29.93S
6HR MIN TEMP:  42; 6HR MAX TEMP:  59;


$$
NMZ524>526-539-540-261300-
SOUTHCENTRAL MOUNTAINS

CITY           SKY/WX    TMP DP  RH WIND       PRES   REMARKS
RUIDOSO        FAIR      45  16  31 NW20G33   29.93S

$$
NMZ527>531-261300-
NORTHEAST HIGHLANDS/NORTHEAST PLAINS

CITY           SKY/WX    TMP DP  RH WIND       PRES   REMARKS
LAS VEGAS      FAIR      37  25  61 W12       29.80F WCI  29
6HR MIN TEMP:  35; 6HR MAX TEMP:  47;

RATON          FAIR      34  28  79 N7        29.73R WCI  28
6HR MIN TEMP:  34; 6HR MAX TEMP:  47;

CLAYTON        FAIR      44  31  60 W8        29.69S
6HR MIN TEMP:  36; 6HR MAX TEMP:  45;


$$
NMZ532>537-261300-
EASTCENTRAL PLAINS

CITY           SKY/WX    TMP DP  RH WIND       PRES   REMARKS
TUCUMCARI      FAIR      53  29  39 W24G31    29.72S
6HR MIN TEMP:  50; 6HR MAX TEMP:  58;

CANNON AFB     FAIR      50  27  41 W12       29.80R
6HR MIN TEMP:  48; 6HR MAX TEMP:  56;

CLOVIS AIRPORT FAIR      48  27  43 W8        29.79S

$$
NMZ028-029-538-261300-
SOUTHEAST PLAINS

CITY           SKY/WX    TMP DP  RH WIND       PRES   REMARKS
ROSWELL        FAIR      55  26  32 NW5         N/A
6HR MIN TEMP:  50; 6HR MAX TEMP:  59;

ARTESIA        FAIR      50  27  40 N5        29.84R
CARLSBAD       FAIR      59  25  27 NE3       29.81R
6HR MIN TEMP:  47; 6HR MAX TEMP:  69;

HOBBS          CLEAR     50  28  43 W13G18    29.84R


$$



USA.gov is the U.S. government's official web portal to all federal, state and local government web resources and services.